This is the latest recevied weather packets stored in our database for station/object AB4KN. If no packets are shown the sender has not sent any weather packets the latest 10 day(s).
| Time | Temp. | Humidity | Pressure | Rain* | Wind** | Luminosity | Snow |
|---|---|---|---|---|---|---|---|
| 1777568632 | 21.67° C | 62% | 1017.5 hPa | 0 mm | - | 596 W/m² | - |
| 1777568330 | 21.11° C | 63% | 1017.5 hPa | 0 mm | - | 737 W/m² | - |
| 1777568026 | 20.56° C | 62% | 1017.6 hPa | 0 mm | - | 669 W/m² | - |
| 1777567723 | 20.56° C | 65% | 1017.8 hPa | 0 mm | - | 727 W/m² | - |
| 1777567420 | 20° C | 64% | 1017.7 hPa | 0 mm | - | 738 W/m² | - |
| 1777567118 | 20.56° C | 65% | 1017.6 hPa | 0 mm | - | 633 W/m² | - |
| 1777566815 | 20° C | 65% | 1017.6 hPa | 0 mm | - | 692 W/m² | - |
| 1777566513 | 20° C | 65% | 1017.6 hPa | 0 mm | - | 657 W/m² | - |
| 1777566211 | 20° C | 67% | 1017.8 hPa | 0 mm | - | 714 W/m² | - |
| 1777565907 | 19.44° C | 70% | 1017.6 hPa | 0 mm | - | 785 W/m² | - |
| 1777565603 | 18.89° C | 72% | 1017.7 hPa | 0 mm | - | 727 W/m² | - |
| 1777565300 | 18.89° C | 72% | 1017.7 hPa | 0 mm | - | 529 W/m² | - |
| 1777564995 | 18.33° C | 74% | 1017.8 hPa | 0 mm | - | 401 W/m² | - |
| 1777564691 | 18.33° C | 74% | 1017.7 hPa | 0 mm | - | 348 W/m² | - |
| 1777564386 | 18.33° C | 74% | 1017.7 hPa | 0 mm | - | 328 W/m² | - |
| 1777564083 | 18.33° C | 75% | 1017.5 hPa | 0 mm | - | 157 W/m² | - |
| 1777563779 | 18.33° C | 76% | 1017.3 hPa | 0 mm | - | 172 W/m² | - |
| 1777563475 | 17.78° C | 76% | 1017.4 hPa | 0 mm | - | 164 W/m² | - |
| 1777563175 | 17.78° C | 77% | 1017.5 hPa | 0 mm | - | 269 W/m² | - |
| 1777562871 | 17.22° C | 77% | 1017.5 hPa | 0 mm | - | 160 W/m² | - |
| 1777562568 | 17.22° C | 77% | 1017.3 hPa | 0 mm | - | 134 W/m² | - |
| 1777562266 | 17.22° C | 77% | 1017.3 hPa | 0 mm | - | 133 W/m² | - |
| 1777561963 | 16.67° C | 78% | 1017.5 hPa | 0 mm | - | 137 W/m² | - |
| 1777561661 | 16.67° C | 79% | 1017.4 hPa | 0 mm | - | 115 W/m² | - |
| 1777561356 | 16.67° C | 78% | 1017.6 hPa | 0 mm | - | 114 W/m² | - |
* Rain latest hour (hover to see other rain measurements)
** Current wind speed in m/s (hover to see current wind gust speed)